Weather History for KITH - July, 2014

Change the Weather History Date:

Thursday, July 3, 2014

  Actual Average Record
Temperature  
Mean Temperature 72 °F -  
Max Temperature 84 °F 77 °F 94 °F (1966)
Min Temperature 60 °F 56 °F 42 °F (1971)
Cooling Degree Days 7    
Growing Degree Days 22 (Base 50)    
Moisture  
Dew Point 65 °F    
Average Humidity 92    
Maximum Humidity 100    
Minimum Humidity 55    
Precipitation  
Precipitation 0.83 in - - ()
Sea Level Pressure  
Sea Level Pressure 29.98 in    
Wind  
Wind Speed 3 mph (NNE)    
Max Wind Speed 17 mph    
Max Gust Speed 25 mph    
Visibility 4 miles    
Events Fog , Rain , Thunderstorm    
Averages and records for this station are not official NWS values.
T = Trace of Precipitation, MM = Missing Value Source: NWS Daily Summary

Daily Weather History Graph

Daily Weather History Graph

Search for Another Location

Airport or City:

Trip Planner

Search our weather history database for the weather conditions in past years. The results will help you decide how hot, cold, wet, or windy it might be!

Date:

Astronomy

Jul. 03, 2014 Rise Set
Actual Time 5:33 AM EDT 8:46 PM EDT
Civil Twilight 4:58 AM EDT 9:21 PM EDT
Nautical Twilight 4:14 AM EDT 10:05 PM EDT
Astronomical Twilight 3:20 AM EDT 10:59 PM EDT
Moon 11:38 AM EDT (7/3) 11:59 PM EDT (7/3)
Length of Visible Light 16h 22m
Length of Day
15h 13m
Waxing Crescent, 33% of the Moon is Illuminated
Jul 3
Waxing Crescent
Jul 5
First Quarter
Jul 12
Full
Jul 18
Last Quarter
Jul 26
New

Hourly Weather History & Observations

Time (EDT) Temp. Heat Index Dew Point Humidity Pressure Visibility Wind Dir Wind Speed Gust Speed Precip Events Conditions
12:56 AM 68.0 °F - 65.8 °F 93% 29.94 in 10.0 mi East 4.6 mph - N/A   Partly Cloudy
1:56 AM 68.0 °F - 66.9 °F 96% 29.94 in 10.0 mi Calm Calm - N/A   Overcast
2:56 AM 66.9 °F - 65.8 °F 96% 29.93 in 8.0 mi Calm Calm - N/A   Partly Cloudy
3:36 AM 66.2 °F - 66.2 °F 100% 29.96 in 5.0 mi Calm Calm - N/A   Mostly Cloudy
3:42 AM 66.2 °F - 66.2 °F 100% 29.95 in 2.5 mi Calm Calm - N/A   Mostly Cloudy
3:56 AM 65.8 °F - 65.8 °F 100% 29.93 in 2.5 mi East 3.5 mph - N/A   Mostly Cloudy
4:07 AM 66.2 °F - 64.4 °F 94% 29.96 in 4.0 mi East 4.6 mph - N/A   Mostly Cloudy
4:56 AM 65.8 °F - 64.9 °F 97% 29.94 in 6.0 mi East 3.5 mph - N/A   Clear
5:56 AM 64.9 °F - 63.9 °F 96% 29.96 in 5.0 mi Calm Calm - N/A   Clear
6:09 AM 64.4 °F - 64.4 °F 100% 29.99 in 2.0 mi Calm Calm - N/A   Clear
6:21 AM 64.4 °F - 64.4 °F 100% 29.99 in 4.0 mi Calm Calm - N/A   Clear
6:23 AM 64.4 °F - 64.4 °F 100% 29.99 in 6.0 mi Calm Calm - N/A Fog Scattered Clouds
6:56 AM 65.8 °F - 65.8 °F 100% 29.97 in 7.0 mi Calm Calm - N/A Fog Partly Cloudy
7:56 AM 72.0 °F - 65.8 °F 81% 29.99 in 10.0 mi Calm Calm - N/A Fog Scattered Clouds
8:56 AM 73.9 °F - 64.9 °F 73% 29.99 in 10.0 mi Calm Calm - N/A   Mostly Cloudy
9:56 AM 74.8 °F - 64.9 °F 71% 29.98 in 10.0 mi NNE 3.5 mph - N/A   Scattered Clouds
10:56 AM 77.9 °F - 65.8 °F 66% 29.95 in 10.0 mi SSE 4.6 mph - N/A   Scattered Clouds
11:56 AM 82.9 °F 85.0 °F 65.8 °F 56% 29.96 in 10.0 mi SW 4.6 mph - N/A   Partly Cloudy
12:56 PM 84.9 °F 87.6 °F 66.9 °F 55% 29.94 in 10.0 mi SSE 6.9 mph - N/A   Mostly Cloudy
1:56 PM 77.9 °F - 70.0 °F 76% 29.92 in 7.0 mi South 10.4 mph - 0.04 in Rain , Thunderstorm Thunderstorms and Rain
2:39 PM 71.6 °F - 68.0 °F 88% 29.98 in 2.0 mi West 17.3 mph 25.3 mph 0.22 in Rain , Thunderstorm Heavy Thunderstorms and Rain
2:56 PM 70.0 °F - 68.0 °F 93% 29.94 in 10.0 mi North 4.6 mph - 0.42 in Rain , Thunderstorm Light Thunderstorms and Rain
3:56 PM 70.0 °F - 64.9 °F 84% 29.94 in 10.0 mi Calm Calm - 0.00 in Rain , Thunderstorm Light Thunderstorms and Rain
4:56 PM 68.0 °F - 66.9 °F 96% 29.97 in 6.0 mi WNW 3.5 mph - 0.15 in Rain , Thunderstorm Light Thunderstorms and Rain
5:16 PM 68.0 °F - 66.2 °F 94% 29.95 in 1.0 mi NW 8.1 mph - 0.00 in Thunderstorm Mostly Cloudy
5:19 PM 69.8 °F - 68.0 °F 94% 29.95 in 0.8 mi NNW 8.1 mph - 0.00 in   Mist
5:35 PM 69.8 °F - 68.0 °F 94% 29.95 in 0.8 mi North 4.6 mph - 0.00 in   Mist
5:56 PM 68.0 °F - 66.9 °F 96% 29.93 in 5.0 mi NNE 6.9 mph - 0.00 in   Overcast
6:56 PM 66.9 °F - 64.9 °F 93% 29.96 in 7.0 mi North 4.6 mph - 0.05 in Rain , Thunderstorm Heavy Thunderstorms and Rain
7:56 PM 64.9 °F - 63.0 °F 93% 29.99 in 10.0 mi North 4.6 mph - 0.17 in   Overcast
8:56 PM 63.9 °F - 63.0 °F 97% 30.00 in 2.0 mi Calm Calm - N/A   Mostly Cloudy
9:15 PM 64.4 °F - 62.6 °F 94% 30.01 in 0.1 mi NW 3.5 mph - N/A Fog Fog
9:23 PM 64.4 °F - 64.4 °F 100% 30.01 in 0.2 mi NNW 3.5 mph - N/A Fog Fog
9:40 PM 64.4 °F - 62.6 °F 94% 30.02 in 3.0 mi Calm Calm - N/A   Mostly Cloudy
9:56 PM 63.9 °F - 63.0 °F 97% 30.01 in 4.0 mi Calm Calm - N/A   Scattered Clouds
10:04 PM 64.4 °F - 62.6 °F 94% 30.03 in 1.5 mi Calm Calm - N/A   Clear
10:06 PM 62.6 °F - 62.6 °F 100% 30.03 in 1.0 mi Calm Calm - N/A   Clear
10:17 PM 62.6 °F - 62.6 °F 100% 30.03 in 0.8 mi Calm Calm - N/A   Clear
10:20 PM 62.6 °F - 62.6 °F 100% 30.03 in 0.5 mi Calm Calm - N/A Fog Fog
10:30 PM 62.6 °F - 60.8 °F 94% 30.03 in 0.2 mi ESE 3.5 mph - N/A Fog Fog
10:56 PM 61.9 °F - 61.9 °F 100% 30.02 in 0.2 mi SE 3.5 mph - N/A Fog Fog
11:24 PM 62.6 °F - 60.8 °F 94% 30.03 in 0.5 mi Calm Calm - N/A Fog Fog
11:32 PM 60.8 °F - 60.8 °F 100% 30.02 in 0.5 mi Calm Calm - N/A Fog Fog
11:37 PM 60.8 °F - 60.8 °F 100% 30.02 in 0.2 mi Calm Calm - N/A Fog Fog
11:43 PM 60.8 °F - 60.8 °F 100% 30.03 in 0.5 mi Calm Calm - N/A Fog Fog
11:56 PM 61.0 °F - 59.9 °F 96% 30.02 in 0.5 mi Calm Calm - N/A Fog Fog